This is the latest recevied weather packets stored in our database for station/object VK4TW-13. If no packets are shown the sender has not sent any weather packets the latest 10 day(s).
| Time | Temp. | Humidity | Pressure | Rain* | Wind** | Luminosity | Snow |
|---|---|---|---|---|---|---|---|
| 1788581016 | 26.67° C | 100% | 1017.7 hPa | 0 mm | - | - | - |
| 1788580828 | 26.67° C | 100% | 1017.7 hPa | 0 mm | - | - | - |
| 1788580391 | 27.22° C | 100% | 1017.8 hPa | 0 mm | - | - | - |
| 1788580204 | 27.22° C | 100% | 1017.9 hPa | 0 mm | - | - | - |
| 1788579868 | 27.22° C | 100% | 1017.9 hPa | 0 mm | - | - | - |
| 1788579687 | 27.22° C | 100% | 1018 hPa | 0 mm | - | - | - |
| 1788579375 | 27.22° C | 100% | 1018 hPa | 0 mm | - | - | - |
| 1788579101 | 27.22° C | 100% | 1018 hPa | 0 mm | - | - | - |
| 1788578636 | 27.22° C | 100% | 1018 hPa | 0 mm | - | - | - |
| 1788578455 | 27.78° C | 100% | 1018.1 hPa | 0 mm | - | - | - |
| 1788578254 | 27.78° C | 100% | 1018.1 hPa | 0 mm | - | - | - |
| 1788578019 | 27.78° C | 100% | 1018.1 hPa | 0 mm | - | - | - |
| 1788577825 | 27.78° C | 100% | 1018.2 hPa | 0 mm | - | - | - |
| 1788577644 | 27.78° C | 100% | 1018.3 hPa | 0 mm | - | - | - |
| 1788577443 | 27.78° C | 100% | 1018.4 hPa | 0 mm | - | - | - |
| 1788576842 | 28.33° C | 100% | 1018.5 hPa | 0 mm | - | - | - |
| 1788576241 | 28.33° C | 100% | 1018.6 hPa | 0 mm | - | - | - |
| 1788575640 | 28.33° C | 100% | 1018.6 hPa | 0 mm | - | - | - |
| 1788575039 | 28.89° C | 100% | 1018.9 hPa | 0 mm | - | - | - |
| 1788574438 | 29.44° C | 100% | 1019 hPa | 0 mm | - | - | - |
| 1788573837 | 29.44° C | 100% | 1019.2 hPa | 0 mm | - | - | - |
| 1788573236 | 30° C | 100% | 1019.2 hPa | 0 mm | - | - | - |
| 1788572636 | 30° C | 100% | 1019.4 hPa | 0 mm | - | - | - |
| 1788572034 | 29.44° C | 100% | 1019.6 hPa | 0 mm | - | - | - |
| 1788571434 | 29.44° C | 100% | 1019.8 hPa | 0 mm | - | - | - |
* Rain since midnight (hover to see other rain measurements)
** Current wind speed in m/s (hover to see current wind gust speed)